User: anonymous   Login
Location: Asni�res
(49.1337°N, 2.3555°E)
Time: 01:54:01
(UTC+00:00)
Language:

Cosmos 2084 Rocket - Orbit

View from above orbital plane
View from above orbital plane
View from above satellite
View from above satellite

Ground track
Ground track

The orbit data is extracted from the following two-line orbital elements,

1 20666U 90055D   22020.47453282  .00000927  00000-0  95333-4 0  9995
2 20666  62.7850 299.2802 0121158  57.7869 303.4903 14.92710651712167
Epoch (UTC): 20 January 2022 11:23:19
Eccentricity: 0.0121158
inclination: 62.7850°
perigee height: 505 km
apogee height: 674 km
right ascension of ascending node: 299.2802°
argument of perigee: 57.7869°
revolutions per day: 14.92710651
mean anomaly at epoch: 303.4903°
orbit number at epoch: 71216

The dashed part of the orbit path shows where the satellite is in the earth's shadow,  

DLR